Simultaneous Nadir Overpasses (SNOs) Predictions

Prediction of SNOs between GOES-15 and METOP-B Satellite Orbit:

Table of predicted SNOs for the next 14.0 days since TLE Epoch: 10/2/2021
Index Date Time (GOES-15) GOES-15 Lat,Lon METOP-B Lat,Lon Distance(km) Time Diff (sec)
1 10/02/2021 17:57:39 -0.33,-127.75 -0.61,-126.44 148.60 80
2 10/04/2021 06:14:01 0.35,-127.80 -0.37,-131.05 369.40 80
3 10/05/2021 05:56:01 0.34,-127.84 0.75,-126.05 203.80 80
4 10/06/2021 18:12:13 -0.35,-127.89 0.26,-130.61 310.60 80
5 10/07/2021 17:54:13 -0.34,-127.92 -0.86,-125.62 262.38 80
6 10/09/2021 06:10:33 0.35,-127.97 -0.17,-130.21 256.42 80
7 10/10/2021 05:52:34 0.34,-127.99 0.95,-125.22 315.95 80
8 10/11/2021 18:08:45 -0.35,-128.03 0.06,-129.78 199.99 80
9 10/12/2021 17:50:46 -0.34,-128.05 -1.06,-124.78 372.06 80
10 10/14/2021 06:07:06 0.35,-128.09 0.04,-129.38 147.62 80
11 10/15/2021 05:49:07 0.34,-128.11 1.16,-124.38 424.16 80
